Location: Fontevrault
(47.1823°N, 0.0493°E)
Time: 17:17:27
(UTC+00:00)

Cosmos 1725 Rocket - Pass Details

Date: 23 October 2021
Orbit: 961 x 991 km, 82.9° (Epoch: 27 November)

Event Time Altitude Azimuth Distance (km) Brightness Sun altitude
Exits shadow 20:49:20 19° 358° (N) 2,138 6.0 -39.1°
Drops below altitude 10° 20:50:58 10° 2° (N) 2,717 6.6 -39.3°
Sets 20:53:32 0° 7° (N) 3,665 7.3 -39.7°
